Regional Weather Roundup
Issued by NWS Wakefield, VA

Home | Current Version | Previous Version | Graphics & Text | Print | Product List | Glossary On
Versions: 1 2 3 4 5 6 7 8 9 10 11 12 13 14 15 16 17 18 19 20 21 22 23 24 25 26 27 28 29 30 31 32 33 34 35 36 37 38 39 40 41 42 43 44 45 46 47 48 49 50
000
ASUS41 KAKQ 280010
RWRAKQ

REGIONAL WEATHER ROUNDUP
NATIONAL WEATHER SERVICE WAKEFIELD VA
800 PM EDT WED AUG 27 2014

Note: "fair" indicates few or no clouds below 12,000 feet with no
significant weather and/or obstructions to visibility. * = Denotes
station may not report precipitation (e.g., rain,snow,etc.),
thunder or fog.

VAZ042-051-052>054-056-280100-
NORTHERN VIRGINIA

CITY           SKY/WX    TMP DP  RH WIND       PRES   REMARKS
WASH NATIONAL  PTCLDY    86  64  47 W8        29.92S
DULLES         PTCLDY    79  68  69 CALM      29.93S
FORT BELVOIR   CLEAR     79  69  70 VRB1      29.93S
QUANTICO       CLEAR     79  71  76 W3        29.93S
FREDERICKSBRG* CLEAR     79  69  72 CALM      29.92F
STAFFORD*      CLEAR     76  76 100 CALM      29.97S
WARRENTON      CLEAR     75  73  92 CALM      29.93S
CULPEPER*      CLEAR    N/A N/A N/A CALM      29.94S
MANASSAS*      CLEAR     77  73  88 CALM      29.93S
LEESBURG*      CLEAR     81  72  74 CALM      29.93F
WINCHESTER     MOCLDY    81  68  65 S3        29.94S
$$

VAZ048-049-060>072-079>083-280100-
CENTRAL AND SOUTH CENTRAL VIRGINIA...AND NORTH CENTRAL NORTH CAROLINA

CITY           SKY/WX    TMP DP  RH WIND       PRES   REMARKS
RICHMOND       PTCLDY    79  61  53 SE5       29.93F
CHESTERFIELD*  CLEAR    N/A N/A N/A NW5       29.95F
HANOVER        CLEAR     75  65  70 CALM      29.95F
TAPPAHANNOCK*  CLEAR     73  65  75 CALM      29.94S
CHARLOTTSVILLE CLEAR     80  66  62 CALM      29.95F
ORANGE*        CLEAR     75  68  78 CALM      29.96S
LOUISA*        CLEAR     73  70  88 CALM      29.94F
FARMVILLE*     CLEAR     77  63  61 CALM      29.95R
SOUTH HILL*    CLEAR     73  72  94 CALM      30.01S
ROANOKE RAPIDS CLEAR     73  64  73 CALM      29.95F
RALEIGH        PTCLDY    75  59  57 CALM      29.98S
$$

VAZ088>098-280100-
SOUTHEAST VIRGINIA

CITY           SKY/WX    TMP DP  RH WIND       PRES   REMARKS
NORFOLK        CLEAR     76  66  71 E3        29.93F
VIRGINIA BEACH PTCLDY    74  68  81 E3        29.93F
NORFOLK NAVAL  PTCLDY    76  65  68 SE5       29.95F
WEST POINT*    CLEAR     77  67  69 CALM      29.94S
NEWPORT NEWS   CLEAR     74  64  71 CALM      29.93F
LANGLEY AFB    CLEAR     75  63  66 E2        29.93F
FORT EUSTIS    CLEAR     77  57  50 SE5       29.92F
WILLIAMSBURG*  CLEAR     77  66  69 CALM      29.94S
FRANKLIN*      CLEAR     73  64  73 CALM      29.94F
WAKEFIELD      CLEAR     73  68  84 CALM      29.94F
$$

VAZ020-022-025-037-045-280100-
WESTERN AND SOUTHWEST VIRGINIA

CITY           SKY/WX    TMP DP  RH WIND       PRES   REMARKS
STAUNTON*      CLEAR     79  67  64 CALM      30.00S
HOT SPRINGS VA CLEAR     68  60  73 W9        30.16S
LYNCHBURG      CLEAR     73  68  84 SW3       30.01S
DANVILLE       CLEAR     74  67  78 W3        29.98F
MARTINSVILLE   CLEAR     72  69  92 CALM      30.03S
ROANOKE        PTCLDY    80  62  54 CALM      30.02F
BLACKSBURG     CLEAR     73  70  88 CALM      30.08F
DUBLIN*        CLEAR     77  64  65 CALM      30.08F
MARION*        CLEAR    N/A N/A N/A SW3       30.14S
HILLSVILLE*    CLEAR     75  58  57 CALM      30.11F
RICHLANDS*     CLEAR     78  62  58 NW5       30.12F
WISE*          CLEAR     75  59  57 CALM      30.14F
ABINGDON*      CLEAR     76  64  66 CALM      30.09F
$$

MDZ021>025-VAZ099-100-280100-
SOUTHERN MARYLAND AND THE DELMARVA PENINSULA

CITY           SKY/WX    TMP DP  RH WIND       PRES   REMARKS
PATUXENT RIVER PTCLDY    77  64  64 SW6       29.92S
BAY BRIDGE APT   N/A     81  63  54 S5        29.91S
LEONARDTOWN    CLEAR     77  63  61 S3        29.94S
DOVER          CLEAR     76  69  78 SE6       29.89F
GEORGETOWN     CLEAR     77  65  66 S10       29.92F
EASTON         CLEAR     82  66  57 CALM      29.95S
CAMBRIDGE      CLEAR     77  66  69 CALM      29.91F
SALISBURY      CLEAR     77  66  68 CALM      29.92F
OCEAN CITY     CLEAR     74  66  76 S5        29.92F
WALLOPS ISLAND CLEAR     73  67  81 S5        29.93F
ACCOMACK*      NOT AVBL
$$

NCZ012>017-030>032-280100-
EASTERN NORTH CAROLINA

CITY           SKY/WX    TMP DP  RH WIND       PRES   REMARKS
ELIZABETH CITY CLEAR     75  65  70 NE5       29.95S
AHOSKIE*       CLEAR     71  64  80 CALM      29.95F
EDENTON*       CLEAR     76  67  75 CALM      29.95R
CURRITUCK*     CLEAR     75  64  70 CALM      29.95S
KILL DEVIL HLS CLEAR     73  70  91 N6        29.93S
MANTEO         CLEAR     73  70  89 N10       29.94S
CAPE HATTERAS  CLEAR     74  72  93 N8G18     29.92S
GOLDSBORO      CLEAR     76  66  71 CALM      29.95S
WASHINGTON     CLEAR     76  66  71 NW3       29.96R
GREENVILLE     CLEAR     77  64  65 CALM      29.98S
NEW BERN       CLEAR     80  67  64 NW5       29.95S
WILMINGTON     CLEAR     80  67  64 N6        29.96R
$$

VAZ048-280100-
ELSEWHERE

CITY           SKY/WX    TMP DP  RH WIND       PRES   REMARKS
HARRISBURG PA  PTCLDY    82  72  71 SW6       29.90S
BALTIMORE      PTCLDY    81  67  62 CALM      29.90F
ANNAPOLIS      CLEAR     80  67  64 S3        29.90F
ANDREWS AFB    CLEAR     80  67  64 SW6       29.92F
WILMINGTON DE  CLEAR     82  66  58 SW5       29.90F
PHILADELPHIA   PTCLDY    84  66  54 SW9       29.89F
WILDWOOD NJ*   CLEAR     73  63  68 S7        29.93S
ATLANTIC CITY  CLEAR     76  64  66 S7        29.90F
HENDERSON NC   CLEAR     74  64  70 CALM      29.97F
GREENSBORO     PTCLDY    80  61  52 CALM      30.00S
ROCKY MOUNT    CLEAR     71  66  84 CALM      29.96F
FAYETTEVILLE   CLEAR     80  62  54 N5        29.97S
CHARLOTTE      PTCLDY    77  55  46 NW3       30.02S
$$

VAZ100-280100-
MARINE

STATION/POSITION TIME  TEMP    WIND        PRES    WAVE   SWELL
                       AIR SEA DIR/SP/G            HT/PER HT/PER
                 (UTC) (F)     (DEG/KT/KT) (MB)    (FT/S) (FT/S)
44066 TX TWR #4  0000   73 76  220/  6/  8 1012.8F   6/16   5/16
CAPE MAY NJ      0000   74 81  170/  3/  5 1012.7R
LEWES DE         0000   76 78  180/  3/  5 1012.8R
15NM E FENWICK I 0000   74 76              1012.9F   4/ 8
OCEAN-CITY-INLET 0000   75 77  200/  6/  8 1012.8F
WACHAPREAGUE VA  0000   76 81  170/  3/  5 1013.6S
THOMAS POINT MD  0000   80 79  200/  8/  9 1013.7F
GOOSES REEF MD   0000   81     190/  8/ 10 1013.4S
COVE POINT MD    0000   80     190/  7/  8 1013.0R
SOLOMONS ISLAND  0000      82                N/A
BISHOPS HEAD MD  0000   79 80  200/  3/  5 1012.8R
PINEY POINT MD   0000          200/  5/  5   N/A
POTOMAC MD       0000   81     190/  4/  6 1012.5F
CAMBRIDGE MD     0000   82 78  170/  2/  3 1012.6F
LEWISETTA VA     0000   79 79  210/  3/  4 1012.9S
RAPPAHANNOCK LGT 0000          160/  3/  3 1013.8F
STINGRAY PT      0000   79     180/  4/  4   N/A
YORK RVR RNG VA  0000   77     140/  6/  6 1013.0F
YORKTOWN VA      0000   79 81  170/  3/  4 1013.2F
JAMESTOWN VA     0000   79     120/  4/  6   N/A
DOMINION TERM VA 0000   78     120/  6/  7 1013.8F
KIPTOPEKE VA     0000      81  150/  5/  5   N/A
CHES BAY BRIDGE  0000   76 78   50/  1/  2 1013.3F
CAPE HENRY VA    0000   76      60/  3/  3 1012.6F
CHESAPEAKE LGHT  2300   74     360/  3/  4 1015.0F
WILLOUBY STN VA  0000   77      60/  4/  4 1012.5F
S CRANEY ISL VA  0000           50/  4/  4 1013.4F
CAPE HENRY BUOY  0000      76                N/A     4/13   2/13
1ST LANDING BUOY 0000   76      90/  2/  4 1013.3F
CAPE CHARLES BUO 0000      77                N/A     5/13   5/13
OFFSHORE WE BUOY 0000      75                N/A     6/13   5/13
64NM E OF VA BCH 0000   75 78  350/ 14/ 17 1012.4F   9/11   8/11
DUCK PIER NC     0000   74 77  360/ 12/ 13 1013.0S
44056 DUCK FRF   0000                        N/A     6/13   3/13
OREGON INLET NC  0000   74 78  350/  8/ 13 1013.4R
HATTERAS NC      0000   77 80   10/ 16/ 19 1013.5S
DIAMOND SHLS NC  0000   76     340/ 19/ 27 1011.9S  11/12  10/12
CAPE LOOKOUT NC  2300   80      30/ 11/ 13 1013.2R
$$


USA.gov is the U.S. government's official web portal to all federal, state and local government web resources and services.